Location: Lac Lasalle
(46.0398°N, 74.1576°W)
Time: 23:01:40
(UTC-04:00)

ISS - Pass Details

Date: 28 March 2019
Orbit: 408 x 410 km, 51.6° (Epoch: 20 April)

Event Time Altitude Azimuth Distance (km) Brightness Sun altitude
Rises 20:30:23 0° 277° (W) 2,335 1.8 -12.8°
Reaches altitude 10° 20:32:37 10° 288° (WNW) 1,474 0.5 -13.2°
Maximum altitude 20:35:37 31° 353° (N) 743 -2.2 -13.7°
Enters shadow 20:38:07 13° 53° (NE) 1,295 -1.6 -14.1°
